Regional Weather Roundup
Issued by NWS

Home | Current Version | Previous Version | Graphics & Text | Print | Product List | Glossary On
Versions: 1 2 3 4 5 6 7 8 9 10 11 12 13 14 15 16 17 18 19 20 21 22 23 24 25 26 27 28 29 30 31 32 33 34 35 36 37 38 39 40 41 42 43 44 45 46 47 48 49 50
000
ASUS45 KABQ 222001
RWRNM
NEW MEXICO REGIONAL WEATHER ROUNDUP
NATIONAL WEATHER SERVICE ALBUQUERQUE NM
100 PM MST MON JAN 22 2018

NOTE: "FAIR" MEANS FEW OR NO CLOUDS BELOW 12,000 FEET AGL WITH NO
       SIGNIFICANT WEATHER OR OBSTRUCTIONS TO VISION.

      THIS PRODUCT IS RELEASED AS TWO VERSIONS.  ONE VERSION NEAR
      THE TOP OF THE HOUR CONTAINING PRELIMINARY DATA FROM ALBUQUERQUE
      AND OTHER STATIONS.  A FINAL VERSION WITH ADDITIONAL DATA IS
      ISSUED ABOUT 10 MINUTES AFTER THE HOUR.

NMZ501-503-504-510>518-222100-
NORTHWEST PLATEAU/NORTHCENTRAL MOUNTAINS

CITY           SKY/WX    TMP DP  RH WIND       PRES   REMARKS
FARMINGTON     FAIR      31  12  45 S5        30.23F WCI  26
SANTA FE       FAIR      33  12  41 N10       30.16F WCI  25
TAOS           FAIR      27  12  53 E8        30.18F WCI  19

$$
NMZ402-403-502-505>509-222100-
WESTCENTRAL MOUNTAINS/SOUTHWEST MOUNTAINS

CITY           SKY/WX    TMP DP  RH WIND       PRES   REMARKS
GALLUP         FAIR      30   9  41 VRB3      30.24F
GRANTS         FAIR      35   8  32 NW14      30.22F WCI  26
SILVER CITY    FAIR      47  -3  12 S3        30.18F

$$
NMZ407-409-411-412-222100-
SOUTHERN DESERTS

CITY           SKY/WX    TMP DP  RH WIND       PRES   REMARKS
DEMING         FAIR      48   4  16 VRB7      30.20F
HOLLOMAN AFB   FAIR      49   6  17 NW10      30.22F
ALAMOGORDO     FAIR      46   5  18 N14G20    30.20F
T OR C         FAIR      45   4  18 NE8       30.20F

$$
NMZ519>523-222100-
CENTRAL VALLEYS/CENTRAL HIGHLANDS

CITY           SKY/WX    TMP DP  RH WIND       PRES   REMARKS
ALBUQUERQUE    FAIR      38   9  30 N15       30.22F WCI  29
DOUBLE EAGLE   MOSUNNY   37   9  30 NW12G17   30.20F WCI  30
CLINES CORNERS FAIR      34   3  27 NW24G32   30.12F WCI  21
BELEN          NOT AVBL
SOCORRO        NOT AVBL

$$
NMZ524>526-539-540-222100-
SOUTHCENTRAL MOUNTAINS

CITY           SKY/WX    TMP DP  RH WIND       PRES   REMARKS
RUIDOSO        NOT AVBL

$$
NMZ527>531-222100-
NORTHEAST HIGHLANDS/NORTHEAST PLAINS

CITY           SKY/WX    TMP DP  RH WIND       PRES   REMARKS
LAS VEGAS      FAIR      43 -15   8 N12       30.06F
RATON          FAIR      45 -11   9 N16G26    30.00F
CLAYTON        FAIR      44  -4  13 N22G32    30.02F

$$
NMZ532>537-222100-
EASTCENTRAL PLAINS

CITY           SKY/WX    TMP DP  RH WIND       PRES   REMARKS
TUCUMCARI      FAIR      50   1  13 W13       30.06F
CANNON AFB     FAIR      48  -2  12 NW16      30.10F
CLOVIS AIRPORT FAIR      48  -1  13 N15G23    30.10F

$$
NMZ028-029-538-222100-
SOUTHEAST PLAINS

CITY           SKY/WX    TMP DP  RH WIND       PRES   REMARKS
ROSWELL        FAIR      54   5  14 N8G17     30.12F
ARTESIA        FAIR      54   5  14 N17G24    30.14F
CARLSBAD       FAIR      54   5  14 NE10      30.13F
HOBBS          SUNNY     50   5  16 NW9       30.12F


$$



USA.gov is the U.S. government's official web portal to all federal, state and local government web resources and services.